Location: Elstree
(51.6403°N, 0.2969°W)
Time: 12:45:06
(UTC+00:00)

Aureole 2 Rocket - Pass Details

Date: 03 March 2021
Orbit: 276 x 344 km, 73.9° (Epoch: 12 April)

Event Time Altitude Azimuth Distance (km) Brightness Sun altitude
Rises 19:01:20 0° 329° (NNW) 1,996 6.2 -12.6°
Reaches altitude 10° 19:03:19 10° 322° (NW) 1,154 5.1 -12.9°
Maximum altitude 19:05:41 40° 250° (WSW) 444 2.9 -13.3°
Drops below altitude 10° 19:07:58 10° 178° (S) 1,117 4.3 -13.6°
Enters shadow 19:08:56 - 173° (S) 1,516 4.9 -13.8°
